User: anonymous   Login
Location: Hickory_CSC
(35.7330°N, 81.3330°W)
Time: 03:44:42
(UTC-04:00)
Language:

Cosmos 1356 Rocket - Orbit

View from above orbital plane
View from above orbital plane
View from above satellite
View from above satellite

Ground track
Ground track

The orbit data is extracted from the following two-line orbital elements,

1 13154U 82039B   14303.93559112  .00003175  00000-0  27298-3 0  4400
2 13154 081.1858 233.5746 0041919 172.8638 187.3186 14.96471247760008
Epoch (UTC): 30 October 2014 22:27:15
Eccentricity: 0.0041919
inclination: 81.1858°
perigee height: 548 km
apogee height: 607 km
right ascension of ascending node: 233.5746°
argument of perigee: 172.8638°
revolutions per day: 14.96471247
mean anomaly at epoch: 187.3186°
orbit number at epoch: 76000

The dashed part of the orbit path shows where the satellite is in the earth's shadow,  

DLR